Location: Dompnac
(44.5644°N, 4.1026°E)
Time: 09:52:06
(UTC+00:00)

SPOT 3 Rocket - Pass Details

Date: 19 September 2020
Orbit: 780 x 794 km, 98.7° (Epoch: 29 October)

Event Time Altitude Azimuth Distance (km) Brightness Sun altitude
Exits shadow 19:32:55 38° 109° (ESE) 1,183 3.9 -19.4°
Maximum altitude 19:34:15 46° 69° (ENE) 1,040 3.8 -19.6°
Drops below altitude 10° 19:39:09 10° 357° (N) 2,344 6.3 -20.4°
Sets 19:41:33 0° 352° (N) 3,277 7.2 -20.8°
